Location: *
(37.5724°S, 58.0067°E)
Time: 04:15:57
(UTC+00:00)

NOSS 3-1 (A) - Pass Details

Date: 22 June 2021
Orbit: 729 x 1483 km, 63.4° (Epoch: 23 July)

Event Time Altitude Azimuth Distance (km) Brightness Sun altitude
Rises 14:45:10 0° 205° (SSW) 3,916 6.8 -20.7°
Reaches altitude 10° 14:49:10 10° 186° (S) 2,792 5.8 -21.5°
Enters shadow 14:51:37 15° 164° (SSE) 2,319 5.2 -21.9°
